Regional Weather Roundup
Issued by NWS Sioux Falls, SD

Home | Current Version | Previous Version | Graphics & Text | Print | Product List | Glossary On
Versions: 1 2 3 4 5 6 7 8 9 10 11 12 13 14 15 16 17 18 19 20 21 22 23 24 25 26 27 28 29 30 31 32 33 34 35 36 37 38 39 40 41 42 43 44 45 46 47 48 49 50
442
ASUS43 KFSD 240210
RWRFSD

WEATHER ROUNDUP FOR SE SOUTH DAKOTA/SW MINNESOTA/NW IOWA
NATIONAL WEATHER SERVICE SIOUX FALLS SD
900 PM CDT TUE AUG 23 2016

NOTE: "FAIR" INDICATES FEW OR NO CLOUDS BELOW 12,000 FEET WITH NO
SIGNIFICANT WEATHER AND OR OBSTRUCTIONS TO VISIBILITY.


SDZ038>040-050-052>070-240300-
SOUTHEAST SOUTH DAKOTA

CITY           SKY/WX    TMP DP  RH WIND       PRES   REMARKS
BROOKINGS      CLOUDY    70  67  90 SE8       29.79F
CHAMBERLAIN    CLEAR     75  56  51 NW8       29.84R
HURON          MOCLDY    78  70  76 W10G21    29.76R
MADISON        CLOUDY    68  68 100 S7        29.79F
MITCHELL       CLEAR     74  71  91 SE7       29.76S
SIOUX FALLS    CLOUDY    73  70  90 E5        29.80R
WINNER         FAIR      71  50  47 NW6       29.88R
YANKTON        MOCLDY    75  72  88 E7        29.75S
$$

MNZ071-072-080-081-089-090-097-098-240300-
SOUTHWEST MINNESOTA

CITY           SKY/WX    TMP DP  RH WIND       PRES   REMARKS
FAIRMONT         N/A    N/A N/A N/A MISG        N/A
JACKSON        CLOUDY    68  64  88 SE12      29.85R FOG
LUVERNE        CLOUDY    70  66  88 SE3       29.82R
MARSHALL       CLOUDY    67  66  97 SE9       29.81F
MONTEVIDEO     CLOUDY    68  64  88 SW12G18   29.81S
REDWOOD FALLS  LGT RAIN  66  63  90 SE5       29.82R
TRACY          CLOUDY    67  66  99 CALM      29.82F
WINDOM         CLOUDY    68  66  94 SE12G17   29.82S FOG
WORTHINGTON    CLOUDY    70  69  97 SE12      29.82S
$$

IAZ001>003-012>014-020>022-031-032-NEZ013-014-SDZ071-240300-
NORTHWEST IOWA

CITY           SKY/WX    TMP DP  RH WIND       PRES   REMARKS
CHEROKEE       RAIN      74  73  97 S7        29.82R
DENISON        CLOUDY    77  73  88 S9G15     29.82S
ESTHERVILLE    CLOUDY    67  67 100 VRB3      29.85R
LE MARS        CLOUDY    77  73  88 SE14      29.80R
ORANGE CITY    CLOUDY    73  72  94 SE5       29.82R
SHELDON        CLOUDY    72  72 100 SE8       29.81R
SIOUX CITY     CLOUDY    78  74  87 SE10      29.79R
SPENCER        CLOUDY    73  70  90 S8        29.83S
STORM LAKE     CLOUDY    73  72  94 S15       29.84S
$$

ABBREVIATIONS USED IN REMARKS
   TC - TEMPERATURE IN CELSIUS
  WCI - WIND CHILL INDEX
   HX - HEAT INDEX
  VSB - VISIBILITY





USA.gov is the U.S. government's official web portal to all federal, state and local government web resources and services.